Time,TemperatureF,DewpointF,PressureIn,WindDirection,WindDirectionDegrees,WindSpeedMPH,WindSpeedGustMPH,Humidity,HourlyPrecipIn,Conditions,Clouds,dailyrainin,SolarRadiationWatts/m^2,SoftwareType,DateUTC
2013-04-19 00:03:00,28.0,27.0,-100.00,NNE,19,7.0,17.0,94,0.00,,,0.26,0.000000,,2013-04-19 05:03:00,
2013-04-19 00:32:00,27.0,26.0,-100.00,NNE,28,8.0,20.0,94,0.00,,,0.26,0.000000,,2013-04-19 05:32:00,
2013-04-19 00:42:00,27.0,26.0,-100.00,NNE,28,8.0,20.0,94,0.00,,,0.26,0.000000,,2013-04-19 05:42:00,
2013-04-19 00:52:00,27.0,26.0,-100.00,NNE,28,8.0,20.0,94,0.00,,,0.26,0.000000,,2013-04-19 05:52:00,
2013-04-19 01:01:00,27.0,26.0,-100.00,NNE,28,8.0,20.0,94,0.00,,,0.26,0.000000,,2013-04-19 06:01:00,
2013-04-19 01:32:00,26.0,25.0,-100.00,NNE,17,7.0,25.0,94,0.00,,,0.26,0.000000,,2013-04-19 06:32:00,
2013-04-19 01:42:00,26.0,25.0,-100.00,NNE,17,7.0,25.0,94,0.00,,,0.26,0.000000,,2013-04-19 06:42:00,
2013-04-19 01:53:00,26.0,25.0,-100.00,NNE,17,7.0,25.0,94,0.00,,,0.26,0.000000,,2013-04-19 06:53:00,
2013-04-19 02:02:00,26.0,25.0,-100.00,NNE,17,7.0,25.0,94,0.00,,,0.26,0.000000,,2013-04-19 07:02:00,
2013-04-19 02:32:00,26.0,24.0,-100.00,North,4,6.0,19.0,93,0.00,,,0.26,0.000000,,2013-04-19 07:32:00,
2013-04-19 02:42:00,26.0,24.0,-100.00,North,4,6.0,19.0,93,0.00,,,0.26,0.000000,,2013-04-19 07:42:00,
2013-04-19 02:52:00,26.0,24.0,-100.00,North,4,6.0,19.0,93,0.00,,,0.26,0.000000,,2013-04-19 07:52:00,
2013-04-19 03:02:00,26.0,24.0,-100.00,North,4,6.0,19.0,93,0.00,,,0.26,0.000000,,2013-04-19 08:02:00,
2013-04-19 03:33:00,25.0,23.0,-100.00,NNE,16,8.0,19.0,93,0.00,,,0.26,0.000000,,2013-04-19 08:33:00,
2013-04-19 03:42:00,25.0,23.0,-100.00,NNE,16,8.0,19.0,93,0.00,,,0.26,0.000000,,2013-04-19 08:42:00,
2013-04-19 03:52:00,25.0,23.0,-100.00,NNE,16,8.0,19.0,93,0.00,,,0.26,0.000000,,2013-04-19 08:52:00,
2013-04-19 04:01:00,25.0,23.0,-100.00,NNE,16,8.0,19.0,93,0.00,,,0.26,0.000000,,2013-04-19 09:01:00,
2013-04-19 04:33:00,24.0,22.0,-100.00,North,4,7.0,15.0,92,0.00,,,0.26,0.000000,,2013-04-19 09:33:00,
2013-04-19 04:43:00,24.0,22.0,-100.00,North,4,7.0,15.0,92,0.00,,,0.26,0.000000,,2013-04-19 09:43:00,
2013-04-19 04:52:00,24.0,22.0,-100.00,North,4,7.0,15.0,92,0.00,,,0.26,0.000000,,2013-04-19 09:52:00,
2013-04-19 05:02:00,24.0,22.0,-100.00,North,4,7.0,15.0,92,0.00,,,0.26,0.000000,,2013-04-19 10:02:00,
2013-04-19 05:33:00,23.0,21.0,-100.00,North,6,8.0,19.0,92,0.00,,,0.26,0.000000,,2013-04-19 10:33:00,
2013-04-19 05:42:00,23.0,21.0,-100.00,North,6,8.0,19.0,92,0.00,,,0.26,0.000000,,2013-04-19 10:42:00,
2013-04-19 05:52:00,23.0,21.0,-100.00,North,6,8.0,19.0,92,0.00,,,0.26,0.000000,,2013-04-19 10:52:00,
2013-04-19 06:02:00,23.0,21.0,-100.00,North,6,8.0,19.0,92,0.00,,,0.26,0.000000,,2013-04-19 11:02:00,
2013-04-19 06:32:00,22.0,20.0,-100.00,North,7,8.0,19.0,91,0.00,,,0.26,0.000000,,2013-04-19 11:32:00,
2013-04-19 06:43:00,22.0,20.0,-100.00,North,7,8.0,19.0,91,0.00,,,0.26,0.000000,,2013-04-19 11:43:00,
2013-04-19 06:52:00,22.0,20.0,-100.00,North,7,8.0,19.0,91,0.00,,,0.26,0.000000,,2013-04-19 11:52:00,
2013-04-19 07:02:00,22.0,20.0,-100.00,North,7,8.0,19.0,91,0.00,,,0.26,0.000000,,2013-04-19 12:02:00,
2013-04-19 07:22:00,22.0,20.0,-100.00,NNE,12,9.0,23.0,90,0.00,,,0.26,8.000000,,2013-04-19 12:22:00,
2013-04-19 07:32:00,22.0,20.0,-100.00,NNE,12,9.0,23.0,90,0.00,,,0.26,8.000000,,2013-04-19 12:32:00,
2013-04-19 07:42:00,22.0,20.0,-100.00,NNE,12,9.0,23.0,90,0.00,,,0.26,8.000000,,2013-04-19 12:42:00,
2013-04-19 07:53:00,22.0,20.0,-100.00,NNE,12,9.0,23.0,90,0.00,,,0.26,8.000000,,2013-04-19 12:53:00,
2013-04-19 08:01:00,22.0,20.0,-100.00,NNE,12,9.0,23.0,90,0.00,,,0.26,8.000000,,2013-04-19 13:01:00,
2013-04-19 08:32:00,22.0,19.0,-100.00,North,7,8.0,21.0,89,0.00,,,0.26,48.000000,,2013-04-19 13:32:00,
2013-04-19 08:42:00,22.0,19.0,-100.00,North,7,8.0,21.0,89,0.00,,,0.26,48.000000,,2013-04-19 13:42:00,
2013-04-19 08:52:00,22.0,19.0,-100.00,North,7,8.0,21.0,89,0.00,,,0.26,48.000000,,2013-04-19 13:52:00,
2013-04-19 09:01:00,22.0,19.0,-100.00,North,7,8.0,21.0,89,0.00,,,0.26,48.000000,,2013-04-19 14:01:00,
2013-04-19 09:22:00,23.0,20.0,-100.00,North,358,8.0,19.0,87,0.00,,,0.26,126.000000,,2013-04-19 14:22:00,
2013-04-19 09:32:00,23.0,20.0,-100.00,North,358,8.0,19.0,87,0.00,,,0.26,126.000000,,2013-04-19 14:32:00,
2013-04-19 09:43:00,23.0,20.0,-100.00,North,358,8.0,19.0,87,0.00,,,0.26,126.000000,,2013-04-19 14:43:00,
2013-04-19 09:52:00,23.0,20.0,-100.00,North,358,8.0,19.0,87,0.00,,,0.26,126.000000,,2013-04-19 14:52:00,
2013-04-19 10:01:00,23.0,20.0,-100.00,North,358,8.0,19.0,87,0.00,,,0.26,126.000000,,2013-04-19 15:01:00,
2013-04-19 10:22:00,24.0,20.0,-100.00,North,8,9.0,22.0,85,0.00,,,0.26,246.000000,,2013-04-19 15:22:00,
2013-04-19 10:33:00,24.0,20.0,-100.00,North,8,9.0,22.0,85,0.00,,,0.26,246.000000,,2013-04-19 15:33:00,
2013-04-19 10:43:00,24.0,20.0,-100.00,North,8,9.0,22.0,85,0.00,,,0.26,246.000000,,2013-04-19 15:43:00,
2013-04-19 10:52:00,24.0,20.0,-100.00,North,8,9.0,22.0,85,0.00,,,0.26,246.000000,,2013-04-19 15:52:00,
2013-04-19 11:03:00,24.0,20.0,-100.00,North,8,9.0,22.0,85,0.00,,,0.26,246.000000,,2013-04-19 16:03:00,
2013-04-19 11:33:00,25.0,20.0,-100.00,North,358,10.0,26.0,81,0.01,,,0.27,425.000000,,2013-04-19 16:33:00,
2013-04-19 11:43:00,25.0,20.0,-100.00,North,358,10.0,26.0,81,0.01,,,0.27,425.000000,,2013-04-19 16:43:00,
2013-04-19 11:53:00,25.0,20.0,-100.00,North,358,10.0,26.0,81,0.01,,,0.27,425.000000,,2013-04-19 16:53:00,
2013-04-19 12:02:00,25.0,20.0,-100.00,North,358,10.0,26.0,81,0.01,,,0.27,425.000000,,2013-04-19 17:02:00,
2013-04-19 12:33:00,26.0,20.0,-100.00,North,5,8.0,22.0,77,0.05,,,0.24,559.000000,,2013-04-19 17:33:00,
2013-04-19 12:43:00,26.0,20.0,-100.00,North,5,8.0,22.0,77,0.05,,,0.24,559.000000,,2013-04-19 17:43:00,
2013-04-19 12:52:00,26.0,20.0,-100.00,North,5,8.0,22.0,77,0.05,,,0.24,559.000000,,2013-04-19 17:52:00,
2013-04-19 13:02:00,26.0,20.0,-100.00,North,5,8.0,22.0,77,0.05,,,0.24,559.000000,,2013-04-19 18:02:00,
2013-04-19 13:33:00,26.0,19.0,-100.00,North,351,10.0,26.0,75,0.04,,,0.20,542.000000,,2013-04-19 18:33:00,
2013-04-19 13:43:00,26.0,19.0,-100.00,North,351,10.0,26.0,75,0.04,,,0.20,542.000000,,2013-04-19 18:43:00,
2013-04-19 13:52:00,26.0,19.0,-100.00,North,351,10.0,26.0,75,0.04,,,0.20,542.000000,,2013-04-19 18:52:00,
2013-04-19 14:01:00,26.0,19.0,-100.00,North,351,10.0,26.0,75,0.04,,,0.20,542.000000,,2013-04-19 19:01:00,
2013-04-19 14:32:00,27.0,20.0,-100.00,North,354,10.0,21.0,74,0.02,,,0.18,540.000000,,2013-04-19 19:32:00,
2013-04-19 14:42:00,27.0,20.0,-100.00,North,354,10.0,21.0,74,0.02,,,0.18,540.000000,,2013-04-19 19:42:00,
2013-04-19 14:52:00,27.0,20.0,-100.00,North,354,10.0,21.0,74,0.02,,,0.18,540.000000,,2013-04-19 19:52:00,
2013-04-19 15:02:00,27.0,20.0,-100.00,North,354,10.0,21.0,74,0.02,,,0.18,540.000000,,2013-04-19 20:02:00,
2013-04-19 15:32:00,28.0,20.0,-100.00,NNW,346,12.0,22.0,70,0.04,,,0.18,577.000000,,2013-04-19 20:32:00,
2013-04-19 15:42:00,28.0,20.0,-100.00,NNW,346,12.0,22.0,70,0.04,,,0.18,577.000000,,2013-04-19 20:42:00,
2013-04-19 15:52:00,28.0,20.0,-100.00,NNW,346,12.0,22.0,70,0.04,,,0.18,577.000000,,2013-04-19 20:52:00,
2013-04-19 16:01:00,28.0,20.0,-100.00,NNW,346,12.0,22.0,70,0.04,,,0.18,577.000000,,2013-04-19 21:01:00,
2013-04-19 16:32:00,30.0,19.0,-100.00,NNW,348,10.0,21.0,62,0.03,,,0.19,673.000000,,2013-04-19 21:32:00,
2013-04-19 16:43:00,30.0,19.0,-100.00,NNW,348,10.0,21.0,62,0.03,,,0.19,673.000000,,2013-04-19 21:43:00,
2013-04-19 16:53:00,30.0,19.0,-100.00,NNW,348,10.0,21.0,62,0.03,,,0.19,673.000000,,2013-04-19 21:53:00,
2013-04-19 17:02:00,30.0,19.0,-100.00,NNW,348,10.0,21.0,62,0.03,,,0.19,673.000000,,2013-04-19 22:02:00,
2013-04-19 17:33:00,29.0,10.0,-100.00,North,2,8.0,21.0,45,0.03,,,0.22,530.000000,,2013-04-19 22:33:00,
2013-04-19 17:42:00,29.0,10.0,-100.00,North,2,8.0,21.0,45,0.03,,,0.22,530.000000,,2013-04-19 22:42:00,
2013-04-19 17:52:00,29.0,10.0,-100.00,North,2,8.0,21.0,45,0.03,,,0.22,530.000000,,2013-04-19 22:52:00,
2013-04-19 18:02:00,29.0,10.0,-100.00,North,2,8.0,21.0,45,0.03,,,0.22,530.000000,,2013-04-19 23:02:00,
2013-04-19 18:32:00,31.0,10.0,-100.00,NNW,340,8.0,20.0,41,0.02,,,0.24,410.000000,,2013-04-19 23:32:00,
2013-04-19 18:42:00,31.0,10.0,-100.00,NNW,340,8.0,20.0,41,0.02,,,0.24,410.000000,,2013-04-19 23:42:00,
2013-04-19 18:52:00,31.0,10.0,-100.00,NNW,340,8.0,20.0,41,0.02,,,0.24,410.000000,,2013-04-19 23:52:00,
2013-04-19 19:02:00,31.0,10.0,-100.00,NNW,340,8.0,20.0,41,0.02,,,0.24,410.000000,,2013-04-20 00:02:00,
2013-04-19 19:32:00,29.0,6.0,-100.00,North,2,6.0,18.0,37,0.02,,,0.26,278.000000,,2013-04-20 00:32:00,
2013-04-19 19:42:00,29.0,6.0,-100.00,North,2,6.0,18.0,37,0.02,,,0.26,278.000000,,2013-04-20 00:42:00,
2013-04-19 19:52:00,29.0,6.0,-100.00,North,2,6.0,18.0,37,0.02,,,0.26,278.000000,,2013-04-20 00:52:00,
2013-04-19 20:01:00,29.0,6.0,-100.00,North,2,6.0,18.0,37,0.02,,,0.26,278.000000,,2013-04-20 01:01:00,
2013-04-19 20:32:00,24.0,5.0,-100.00,NNW,346,6.0,11.0,43,0.00,,,0.26,44.000000,,2013-04-20 01:32:00,
2013-04-19 20:42:00,24.0,5.0,-100.00,NNW,346,6.0,11.0,43,0.00,,,0.26,44.000000,,2013-04-20 01:42:00,
2013-04-19 20:52:00,24.0,5.0,-100.00,NNW,346,6.0,11.0,43,0.00,,,0.26,44.000000,,2013-04-20 01:52:00,
2013-04-19 21:01:00,24.0,5.0,-100.00,NNW,346,6.0,11.0,43,0.00,,,0.26,44.000000,,2013-04-20 02:01:00,
2013-04-19 21:32:00,21.0,4.0,-100.00,North,359,3.0,9.0,47,0.00,,,0.26,1.000000,,2013-04-20 02:32:00,
2013-04-19 21:42:00,21.0,4.0,-100.00,North,359,3.0,9.0,47,0.00,,,0.26,1.000000,,2013-04-20 02:42:00,
2013-04-19 21:52:00,21.0,4.0,-100.00,North,359,3.0,9.0,47,0.00,,,0.26,1.000000,,2013-04-20 02:52:00,
2013-04-19 22:01:00,21.0,4.0,-100.00,North,359,3.0,9.0,47,0.00,,,0.26,1.000000,,2013-04-20 03:01:00,
2013-04-19 22:33:00,19.0,4.0,-100.00,NNW,347,3.0,6.0,51,0.00,,,0.26,0.000000,,2013-04-20 03:33:00,
2013-04-19 22:43:00,19.0,4.0,-100.00,NNW,347,3.0,6.0,51,0.00,,,0.26,0.000000,,2013-04-20 03:43:00,
2013-04-19 22:53:00,19.0,4.0,-100.00,NNW,347,3.0,6.0,51,0.00,,,0.26,0.000000,,2013-04-20 03:53:00,
2013-04-19 23:03:00,19.0,4.0,-100.00,NNW,347,3.0,6.0,51,0.00,,,0.26,0.000000,,2013-04-20 04:03:00,
2013-04-19 23:33:00,16.0,3.0,-100.00,NNW,341,3.0,6.0,56,0.00,,,0.26,0.000000,,2013-04-20 04:33:00,
2013-04-19 23:43:00,16.0,3.0,-100.00,NNW,341,3.0,6.0,56,0.00,,,0.26,0.000000,,2013-04-20 04:43:00,
2013-04-19 23:53:00,16.0,3.0,-100.00,NNW,341,3.0,6.0,56,0.00,,,0.26,0.000000,,2013-04-20 04:53:00,